Location: Shenandoah County Park
(38.9356°N, 78.4524°W)
Time: 13:50:23
(UTC-05:00)

deb Explorer IX - Visible Passes

Search period start: 07 February 2023 00:00
Search period end: 17 February 2023 00:00
Orbit: 534 x 1047 km, 38.8° (Epoch: 07 February)

Date Brightness Start Highest point End Pass type
(mag) Time Alt. Az. Time Alt. Az. Time Alt. Az.
07 Feb ? 04:51:29 40° E 04:51:29 40° E 04:54:07 10° E visible
07 Feb ? 06:32:07 11° W 06:35:56 48° SSW 06:39:48 10° SE visible
08 Feb ? 04:20:20 18° E 04:20:20 18° E 04:21:24 10° E visible
08 Feb ? 06:00:58 24° W 06:03:11 53° SSW 06:07:06 10° ESE visible
09 Feb ? 05:29:47 52° SW 05:30:22 58° SSW 05:34:21 10° ESE visible
10 Feb ? 04:58:34 44° SE 04:58:34 44° SE 05:01:32 10° ESE visible
10 Feb ? 06:39:57 10° WSW 06:42:59 19° SSW 06:45:54 10° SSE visible
11 Feb ? 04:27:21 20° ESE 04:27:21 20° ESE 04:28:41 10° ESE visible
11 Feb ? 06:07:59 16° WSW 06:10:04 22° SSW 06:13:14 10° SSE visible
12 Feb ? 05:36:45 25° SW 05:37:05 25° SSW 05:40:30 10° SSE visible
13 Feb ? 05:05:31 23° S 05:05:31 23° S 05:07:41 10° SSE visible
14 Feb ? 04:34:19 13° SSE 04:34:19 13° SSE 04:34:47 10° SE visible
16 Feb ? 19:44:07 10° SSE 19:44:46 11° SSE 19:44:46 11° SSE visible
